Flag for U.S.A. Weather past 2 weeks in Terre Haute, Indiana, U.S.A.

Now
23 °F

Clear.


Feels Like: 14 °F
Forecast: 18 / 31 °F
Wind: 8 mph from Northwest

Location: Terre Haute International Airport - Hulman Field

Current Time: Mar 2, 2015 at 12:39:48 AM

Latest Report: Mar 1, 2015 at 11:53 PM


Visibility: 10 mi

Pressure: 30.45 "Hg

Humidity: 81%

Dew point: 18 °F

Location of Terre HauteLocation

Historic Weather in Terre Haute — Graph

°F

Terre Haute temperature yesterday

Maximum temperature yesterday: 31 °F (at 12:53 PM)
Minimum temperature yesterday: 24 °F (at 12:53 AM)
Average temperature yesterday: 27 °F

Past Weeks' High & Low Weather Summary

 TemperatureHumidityPressure
High34 °F (Feb 21, 2:53 PM)100% (Feb 25, 8:53 AM)30.75 "Hg (Feb 25, 8:53 AM)
Low-12 °F (Feb 24, 5:53 AM)37% (Feb 15, 10:53 PM)29.88 "Hg (Feb 18, 3:01 AM)
Average15 °F69%30.29 "Hg
* Reported Feb 14 10:53 PM — Mar 1 10:53 PM, Terre Haute, Weather by CustomWeather, © 2015

Note: Actual official high and low records may vary slightly from our data, if they occured in-between our weather recording intervals... More about our weather records

Advertising

Terre Haute weather history for previous 24 hours

 ConditionsComfort  
Time TempWeatherWind HumidityBarometerVisibility
10:53 PM
Sun, Mar 1
24 °FPassing clouds.7 mph81%30.45 "Hg10 mi
9:53 PM25 °FPassing clouds.10 mph81%30.41 "Hg10 mi
8:53 PM25 °FClear.8 mph85%30.39 "Hg10 mi
7:53 PM26 °FClear.7 mph81%30.37 "Hg10 mi
6:53 PM27 °FPassing clouds.9 mph81%30.36 "Hg10 mi
5:53 PM29 °FOvercast.7 mph82%30.33 "Hg9 mi
4:53 PM30 °FMostly cloudy.7 mph85%30.32 "Hg10 mi
3:53 PM30 °FLow clouds.5 mph85%30.32 "Hg10 mi
2:53 PM30 °FIce fog.3 mph89%30.33 "Hg4 mi
1:53 PM30 °FLight snow. Ice fog.No wind89%30.34 "Hg3 mi
12:53 PM31 °FIce fog.5 mph85%30.36 "Hg5 mi
11:53 AM30 °FIce fog.6 mph89%30.39 "Hg2 mi
11:04 AM30 °FIce fog.No wind89%30.36 "Hg2 mi
9:53 AM28 °FLight snow. Ice fog.No wind89%30.40 "Hg2 mi
8:53 AM27 °FLight snow. Ice fog.No wind89%30.40 "Hg2 mi
7:53 AM26 °FSnow. Ice fog.No wind92%30.40 "Hg1 mi
6:53 AM26 °FLight snow. Ice fog.No wind88%30.41 "Hg1 mi
6:00 AM25 °FLight snow. Ice fog.No wind92%30.38 "Hg1 mi
5:53 AM25 °FLight snow. Ice fog.3 mph92%30.40 "Hg2 mi
4:53 AM25 °FLight snow. Ice fog.3 mph92%30.39 "Hg2 mi
3:53 AM25 °FLight snow. Ice fog.No wind92%30.41 "Hg1 mi
3:03 AM25 °FLight snow. Ice fog.No wind92%30.40 "Hg1 mi
2:53 AM25 °FLight snow. Ice fog.No wind92%30.43 "Hg1 mi
1:53 AM25 °FLight snow. Ice fog.3 mph88%30.44 "Hg1 mi
12:53 AM24 °FLight snow. Ice fog.7 mph91%30.45 "Hg1 mi
Weather by CustomWeather, © 2015

See weather overviewHow to use our weather pages